This is the latest recevied weather packets stored in our database for station/object IZ1GCT. If no packets are shown the sender has not sent any weather packets the latest 10 day(s).
| Time | Temp. | Humidity | Pressure | Rain* | Wind** | Luminosity | Snow |
|---|---|---|---|---|---|---|---|
| 1777638338 | 15.56° C | 41% | 1030.1 hPa | 0 mm | - | - | - |
| 1777638036 | 15.56° C | 42% | 1030.1 hPa | 0 mm | - | - | - |
| 1777637738 | 15.56° C | 42% | 1030.1 hPa | 0 mm | - | - | - |
| 1777637438 | 15.56° C | 43% | 1030.2 hPa | 0 mm | - | - | - |
| 1777637137 | 15° C | 43% | 1030.2 hPa | 0 mm | - | - | - |
| 1777636837 | 15° C | 44% | 1030.1 hPa | 0 mm | - | - | - |
| 1777636537 | 15° C | 44% | 1030.2 hPa | 0 mm | - | - | - |
| 1777636236 | 14.44° C | 42% | 1030.1 hPa | 0 mm | - | - | - |
| 1777635938 | 15° C | 43% | 1030.3 hPa | 0 mm | - | - | - |
| 1777635637 | 14.44° C | 45% | 1030.1 hPa | 0 mm | - | - | - |
| 1777635336 | 14.44° C | 45% | 1030.2 hPa | 0 mm | - | - | - |
| 1777635037 | 15° C | 45% | 1030.1 hPa | 0 mm | - | - | - |
| 1777634737 | 14.44° C | 46% | 1030 hPa | 0 mm | - | - | - |
| 1777634437 | 15° C | 45% | 1030.1 hPa | 0 mm | - | - | - |
| 1777634138 | 15° C | 46% | 1030.1 hPa | 0 mm | - | - | - |
| 1777633837 | 15° C | 46% | 1030.1 hPa | 0 mm | - | - | - |
| 1777633536 | 15° C | 50% | 1030.2 hPa | 0 mm | - | - | - |
| 1777633238 | 14.44° C | 47% | 1030.2 hPa | 0 mm | - | - | - |
| 1777632937 | 14.44° C | 47% | 1030.2 hPa | 0 mm | - | - | - |
| 1777632636 | 14.44° C | 50% | 1030.2 hPa | 0 mm | - | - | - |
| 1777632337 | 14.44° C | 48% | 1030.1 hPa | 0 mm | - | - | - |
| 1777632038 | 14.44° C | 50% | 1030.2 hPa | 0 mm | - | - | - |
| 1777631737 | 15° C | 51% | 1030.2 hPa | 0 mm | - | - | - |
| 1777631437 | 14.44° C | 50% | 1030.2 hPa | 0 mm | - | - | - |
| 1777631136 | 14.44° C | 49% | 1030.1 hPa | 0 mm | - | - | - |
* Rain latest hour (hover to see other rain measurements)
** Current wind speed in m/s (hover to see current wind gust speed)